Showing default

IRIDIUM 102, 41920

Orbit data source: Space-Track

IRIDIUM 102, 41920 is a payload satellite owned by Iridium (US) in LEO that was launched on Sat, 14 Jan 2017 UTC via an FALCON 9 launch vehicle from the Air Force Western Test Range (AFWTR). Payload-class satellites include a variety of spacecraft equipped with specific instruments for various scientific and technological missions. These include communications satellites like Starlink; space stations such as the ISS; scientific satellites like the Hubble; Earth observation satellites from companies like Planet Labs, Umbra, and HawkEye 360; GPS; miniature CubeSats for education and research; and military/defense satellites.

Loading next visibility...
Identifier
41920, 2017-003D
Orbit
LEO
Country
Flag of USUS
Related business
Manufacturer
OATK SSG Gilbert
Mission
Operational Commercial Communications
Bus & Motor
ELITEBUS, Unknown motor
Mass
860 kg wet, 700 kg dry
Launch date (UTC)
2017-01-14 (9 years ago)
Launch vehicle
FALCON 9
Launch site
Air Force Western Test Range (AFWTR)
Object type
Payload
Rocket body
Debris
Shape & HBR
Trap Box + 2 Pan, 4.8 m
Radar Cross Section
10.154 m², Large (>1 m²)

Expand to show TLE details & history
Last TLE update: 10 hours ago

TLE from 10 hours ago
0 IRIDIUM 102
1 41920U 17003D   25315.17035015 -.00000045  00000-0 -23029-4 0  9996
2 41920  86.4013 179.5166 0001998  86.6552 273.4872 14.34217185462038
Epoch: 2025-11-11T04:05Z
TLE epoch observation values (Epoch: 2025-11-11T04:05:18.252Z)
Latitude
-0.00009°
Longitude
67.6298°
Altitude
780.633 km
Speed
7.464 km/s
True Right ascension
11h 58m 03s
True Declination
0° 00' 00"
Sunlit
Object was in daylight at epoch
Visualization orbit readout
Latitude
Unknown
Longitude
Unknown
Altitude
Unknown
Speed
Unknown
Apparent Right ascension
Unknown
Apparent Declination
Unknown
Sunlit
N/A
Visualization observer readout
Local Sidereal Time
10:57:10
Azimuth
Unknown
Elevation
Unknown
Doppler factor
Unknown
Orbital elements
Apogee altitude
776.063 km
Perigee altitude
773.204 km
Semi-major axis
7,152.77 km
Eccentricity
0.0002
Inclination
86.4013°
RAAN
179.5166°
Arg. of periapsis
86.6552°
True anomaly
273.46435°
Mean anomaly
273.4872°
Eccentric anomaly
273.47577°
Mean motion
3.58783 °/min
Orbital period
100.34 mins
BSTAR
-0.000023029
Loading maneuver chart data...
Computing Atmospheric mass density...
Loading historical data...
Loading historical data...
Loading historical data...
Loading historical data...
Loading historical data...
Loading historical data...
Loading historical data...

Documentation

Showing up to 5 results
|